DW5164 Weather Reports


time (UTC)temp
F
wind
direction
speed
knots
gust
knots
rain 1hr
in
rain 24hr
in
rain mn
in
humidity
%
barometer
mb
20260507194545 63 15 1.7 1.7 0.00 0.00 0.00 76 1012.6
20260507194041 63 15 1.7 1.7 0.00 0.00 0.00 75 1012.5
20260507193041 63 15 0.9 2.6 0.00 0.00 0.00 75 1012.5
20260507192541 64 15 0.9 1.7 0.00 0.00 0.00 74 1012.4
20260507192044 64 15 0.0 0.0 0.00 0.00 0.00 74 1012.3
20260507191544 64 15 0.0 0.0 0.00 0.00 0.00 74 1012.3
20260507191046 65 15 0.0 0.0 0.00 0.00 0.00 73 1012.2
20260507190541 65 15 0.0 0.9 0.00 0.00 0.00 73 1012.2
20260507190041 65 15 0.9 1.7 0.00 0.00 0.00 72 1012.1
20260507185541 65 9 0.9 1.7 0.00 0.00 0.00 73 1012.2
20260507185041 65 9 0.0 0.9 0.00 0.00 0.00 73 1012.2
20260507184541 65 9 0.0 0.0 0.00 0.00 0.00 71 1012.1
20260507184040 66 9 0.0 0.0 0.00 0.00 0.00 71 1012.1
20260507183541 66 20 0.0 0.0 0.00 0.00 0.00 69 1012.0
20260507183042 67 20 0.0 0.0 0.00 0.00 0.00 69 1011.9
20260507182541 67 20 0.0 0.0 0.00 0.00 0.00 67 1011.8
20260507182041 68 20 0.0 0.0 0.00 0.00 0.00 67 1011.7
20260507181541 68 20 0.0 0.0 0.00 0.00 0.00 66 1011.6
20260507181043 69 20 0.0 0.0 0.00 0.00 0.00 64 1011.6
20260507180040 70 2 0.0 1.7 0.00 0.00 0.00 60 1011.6
20260507175541 71 255 0.9 1.7 0.00 0.00 0.00 56 1011.5
20260507174542 71 228 0.0 1.7 0.00 0.00 0.00 55 1011.4
20260507174041 71 225 0.0 1.7 0.00 0.00 0.00 57 1011.3
20260507173542 71 225 0.9 1.7 0.00 0.00 0.00 55 1011.2
20260507173041 71 220 0.9 1.7 0.00 0.00 0.00 54 1011.2
20260507172541 72 220 1.7 2.6 0.00 0.00 0.00 54 1011.2
20260507172044 72 220 1.7 2.6 0.00 0.00 0.00 54 1011.2
20260507171544 72 241 0.9 4.3 0.00 0.00 0.00 54 1011.2
20260507170541 72 237 3.5 4.3 0.00 0.00 0.00 53 1011.1
20260507170040 72 227 0.9 2.6 0.00 0.00 0.00 53 1011.0
20260507165540 73 225 2.6 2.6 0.00 0.00 0.00 52 1011.0
20260507165040 73 276 1.7 5.2 0.00 0.00 0.00 53 1011.1
20260507164041 73 240 2.6 5.2 0.00 0.00 0.00 52 1011.1
20260507163041 73 235 1.7 5.2 0.00 0.00 0.00 52 1011.0
20260507162540 74 236 2.6 4.3 0.00 0.00 0.00 53 1011.1
20260507161540 74 271 3.5 6.1 0.00 0.00 0.00 51 1011.1
20260507161041 74 248 2.6 5.2 0.00 0.00 0.00 53 1011.1
20260507160547 73 266 4.3 7.0 0.00 0.00 0.00 53 1011.2
20260507160040 73 246 2.6 4.3 0.00 0.00 0.00 54 1011.2
20260507155541 73 318 0.9 6.1 0.00 0.00 0.00 55 1011.2
20260507154540 73 314 0.9 5.2 0.00 0.00 0.00 55 1011.1
20260507154041 73 311 1.7 6.1 0.00 0.00 0.00 54 1011.1
20260507153541 73 293 0.9 1.7 0.00 0.00 0.00 54 1011.2
20260507153040 72 298 2.6 2.6 0.00 0.00 0.00 54 1011.2
20260507152541 72 27 0.0 0.9 0.00 0.00 0.00 54 1011.2
20260507152042 72 278 0.9 2.6 0.00 0.00 0.00 53 1011.2
20260507151540 72 291 1.7 2.6 0.00 0.00 0.00 54 1011.2
20260507150040 73 282 3.5 7.8 0.00 0.00 0.00 54 1011.2
20260507145548 72 111 0.9 2.6 0.00 0.00 0.00 52 1011.2
20260507145040 74 216 1.7 6.1 0.00 0.00 0.00 51 1011.2
20260507144540 74 186 3.5 7.0 0.00 0.00 0.00 51 1011.2
20260507143541 73 350 1.7 2.6 0.00 0.00 0.00 54 1011.2
20260507142540 73 260 2.6 6.1 0.00 0.00 0.00 52 1011.3
20260507142041 73 290 1.7 2.6 0.00 0.00 0.00 52 1011.3
20260507141540 74 317 2.6 6.1 0.00 0.00 0.00 49 1011.3
20260507141040 75 306 4.3 7.0 0.00 0.00 0.00 50 1011.3
20260507140540 75 260 6.1 7.8 0.00 0.00 0.00 51 1011.3
20260507140042 75 341 2.6 6.1 0.00 0.00 0.00 52 1011.3
20260507135540 74 290 2.6 6.1 0.00 0.00 0.00 50 1011.4
20260507135042 74 291 7.8 11.3 0.00 0.00 0.00 49 1011.4
20260507133540 74 287 4.3 7.8 0.00 0.00 0.00 50 1011.4
20260507132540 74 301 4.3 10.4 0.00 0.00 0.00 49 1011.5
20260507132040 74 320 6.1 10.4 0.00 0.00 0.00 48 1011.5
20260507131540 74 275 4.3 10.4 0.00 0.00 0.00 51 1011.5
20260507131041 74 277 4.3 8.7 0.00 0.00 0.00 52 1011.6
20260507130542 73 287 6.1 10.4 0.00 0.00 0.00 53 1011.6
20260507125540 73 291 5.2 7.8 0.00 0.00 0.00 52 1011.6
20260507125041 74 294 5.2 8.7 0.00 0.00 0.00 54 1011.6
20260507124540 74 310 5.2 8.7 0.00 0.00 0.00 52 1011.6
20260507124040 73 270 2.6 6.1 0.00 0.00 0.00 54 1011.7
20260507123539 74 292 4.3 11.3 0.00 0.00 0.00 51 1011.7
20260507123043 73 301 6.1 10.4 0.00 0.00 0.00 52 1011.6
20260507122540 73 279 5.2 8.7 0.00 0.00 0.00 52 1011.6
20260507122039 73 275 5.2 8.7 0.00 0.00 0.00 53 1011.7
20260507121539 73 293 7.8 10.4 0.00 0.00 0.00 53 1011.8
20260507121040 73 316 4.3 10.4 0.00 0.00 0.00 53 1011.7
20260507120039 73 268 3.5 8.7 0.00 0.00 0.00 57 1011.8
20260507115540 72 296 5.2 10.4 0.00 0.00 0.00 56 1011.9
20260507115041 72 299 6.1 11.3 0.00 0.00 0.00 53 1011.9
20260507114539 73 268 1.7 10.4 0.00 0.00 0.00 56 1011.9
20260507114039 72 311 2.6 6.1 0.00 0.00 0.00 56 1012.0
20260507113543 71 288 4.3 7.0 0.00 0.00 0.00 56 1012.0
20260507113040 72 262 2.6 6.1 0.00 0.00 0.00 56 1012.1
20260507112539 72 291 2.6 5.2 0.00 0.00 0.00 59 1012.2
20260507111540 71 255 0.9 4.3 0.00 0.00 0.00 57 1012.3
20260507111043 71 229 2.6 8.7 0.00 0.00 0.00 60 1012.3
20260507110539 71 238 4.3 8.7 0.00 0.00 0.00 61 1012.3
20260507110039 71 323 2.6 7.8 0.00 0.00 0.00 58 1012.4
20260507105040 69 252 1.7 5.2 0.00 0.00 0.00 63 1012.5
20260507104040 71 222 4.3 8.7 0.00 0.00 0.00 60 1012.5
20260507103539 70 244 4.3 5.2 0.00 0.00 0.00 63 1012.6
20260507103041 71 266 2.6 4.3 0.00 0.00 0.00 62 1012.6
20260507102540 70 236 4.3 7.8 0.00 0.00 0.00 60 1012.6
20260507102040 71 244 4.3 7.8 0.00 0.00 0.00 60 1012.6
20260507101040 70 221 3.5 7.0 0.00 0.00 0.00 63 1012.7
20260507100539 69 238 2.6 4.3 0.00 0.00 0.00 65 1012.7
20260507100039 70 273 2.6 6.1 0.00 0.00 0.00 66 1012.8
20260507095540 69 226 1.7 6.1 0.00 0.00 0.00 66 1012.8
20260507094539 70 270 2.6 7.8 0.00 0.00 0.00 66 1012.8
20260507094047 69 298 4.3 7.8 0.00 0.00 0.00 68 1012.8
20260507093540 68 295 4.3 7.0 0.00 0.00 0.00 65 1012.7
20260507093039 69 224 4.3 7.8 0.00 0.00 0.00 68 1012.7
20260507092540 68 281 3.5 7.8 0.00 0.00 0.00 70 1012.6
20260507092039 68 295 5.2 7.8 0.00 0.00 0.00 70 1012.6
20260507091546 67 285 5.2 10.4 0.00 0.00 0.00 71 1012.6
20260507091040 67 267 4.3 6.1 0.00 0.00 0.00 72 1012.7
20260507090039 67 274 2.6 7.0 0.00 0.00 0.00 75 1012.7
20260507085540 67 231 6.1 10.4 0.00 0.00 0.00 73 1012.7
20260507085039 66 247 4.3 7.0 0.00 0.00 0.00 74 1012.7
20260507084539 66 249 4.3 7.8 0.00 0.00 0.00 74 1012.7
20260507084039 65 279 2.6 10.4 0.00 0.00 0.00 75 1012.7
20260507083539 65 254 6.1 7.8 0.00 0.00 0.00 75 1012.7
20260507083039 65 248 4.3 7.0 0.00 0.00 0.00 77 1012.6
20260507082539 64 268 4.3 6.1 0.00 0.00 0.00 76 1012.6
20260507082040 64 286 4.3 7.0 0.00 0.00 0.00 76 1012.6
20260507081539 64 235 3.5 7.8 0.00 0.00 0.00 77 1012.5
20260507081041 64 271 4.3 6.1 0.00 0.00 0.00 77 1012.5
20260507075546 63 256 3.5 6.1 0.00 0.00 0.00 81 1012.6
20260507075039 63 261 4.3 7.0 0.00 0.00 0.00 82 1012.6
20260507074539 62 262 4.3 6.1 0.00 0.00 0.00 82 1012.6
20260507074039 62 228 3.5 6.1 0.00 0.00 0.00 83 1012.5
20260507073540 62 264 5.2 7.0 0.00 0.00 0.00 84 1012.6
20260507073039 61 229 2.6 7.0 0.00 0.00 0.00 84 1012.6
20260507072544 61 242 4.3 7.0 0.00 0.00 0.00 84 1012.5
20260507071541 60 250 4.3 6.1 0.00 0.00 0.00 85 1012.4
20260507071040 60 265 4.3 7.8 0.00 0.00 0.00 85 1012.4
20260507070539 60 217 1.7 6.1 0.00 0.00 0.00 86 1012.3
20260507070044 59 248 2.6 4.3 0.00 0.00 0.00 86 1012.3
20260507065541 59 273 2.6 4.3 0.00 0.00 0.00 88 1012.3
20260507065039 58 196 1.7 4.3 0.00 0.00 0.00 88 1012.2
20260507064540 58 238 1.7 2.6 0.00 0.00 0.00 89 1012.2
20260507064039 57 247 1.7 2.6 0.00 0.01 0.00 89 1012.2
20260507063539 57 261 0.9 2.6 0.00 0.01 0.00 89 1012.1
20260507063040 57 232 2.6 4.3 0.00 0.01 0.00 88 1012.1
20260507062039 57 250 1.7 4.3 0.00 0.01 0.00 89 1012.1
20260507061039 56 228 2.6 2.6 0.00 0.02 0.00 89 1012.0
20260507060539 56 244 1.7 2.6 0.00 0.02 0.00 89 1011.9
20260507054538 55 279 2.6 2.6 0.00 0.02 0.00 89 1011.9
20260507053539 55 278 0.9 2.6 0.00 0.03 0.00 89 1011.8
20260507052039 53 311 1.7 2.6 0.00 0.05 0.00 89 1011.6
20260507051538 53 267 0.0 1.7 0.00 0.06 0.00 90 1011.5
20260507051040 53 265 0.9 2.6 0.00 0.06 0.00 90 1011.4
20260507050539 52 271 0.9 2.6 0.00 0.06 0.00 90 1011.4
20260507050038 52 276 0.9 1.7 0.00 0.07 0.00 91 1011.3
20260507045539 52 273 0.9 2.6 0.00 0.07 0.00 92 1011.2
20260507045038 51 245 0.0 0.0 0.00 0.08 0.00 92 1011.2
20260507044540 51 246 0.0 0.0 0.00 0.08 0.00 92 1011.1
20260507043538 50 258 0.0 0.0 0.00 0.08 0.00 92 1011.0
20260507043053 50 258 0.0 0.9 0.00 0.08 0.00 92 1011.0
20260507042538 51 259 0.0 0.9 0.00 0.08 0.00 92 1011.1
20260507042038 51 275 0.0 0.0 0.00 0.08 0.00 92 1011.1
20260507041540 51 273 0.0 0.0 0.00 0.09 0.00 92 1011.0
20260507041039 51 273 0.0 1.7 0.00 0.09 0.00 92 1011.0
20260507040539 51 263 1.7 2.6 0.00 0.11 0.00 94 1011.0
20260507040040 51 249 0.0 0.0 0.00 0.11 0.00 94 1011.0
20260507035542 51 254 0.9 1.7 0.00 0.11 0.00 95 1010.9
20260507035038 51 258 0.9 2.6 0.00 0.11 0.00 95 1010.9
20260507034538 51 228 0.9 2.6 0.00 0.11 0.00 95 1010.8
20260507034038 50 252 0.9 1.7 0.00 0.11 0.00 95 1010.8
20260507033538 50 232 0.9 0.9 0.00 0.11 0.00 96 1010.8
20260507033038 50 231 0.0 0.9 0.00 0.11 0.00 96 1010.7
20260507032538 51 237 0.9 2.6 0.00 0.11 0.00 96 1010.6
20260507032038 50 221 1.7 2.6 0.00 0.11 0.00 96 1010.6
20260507031538 51 84 0.0 0.0 0.00 0.11 0.00 96 1010.6
20260507031038 51 84 0.0 0.0 0.00 0.11 0.00 96 1010.6
20260507030539 51 84 0.0 0.0 0.00 0.11 0.00 96 1010.7
20260507030038 51 84 0.0 0.0 0.00 0.11 0.00 95 1010.7
20260507025538 51 84 0.0 0.0 0.00 0.11 0.00 96 1010.7
20260507025038 51 84 0.0 0.0 0.00 0.11 0.00 95 1010.6
20260507024538 51 84 0.0 1.7 0.00 0.11 0.00 96 1010.6
20260507024045 52 232 0.0 0.0 0.00 0.11 0.00 96 1010.6
20260507023540 52 232 0.0 0.0 0.00 0.11 0.00 96 1010.6
20260507023056 52 232 0.0 2.6 0.00 0.11 0.00 96 1010.6
20260507022545 52 173 0.0 1.7 0.00 0.11 0.00 96 1010.6
20260507022038 52 77 0.0 0.0 0.00 0.11 0.00 96 1010.6
20260507021539 52 77 0.0 0.0 0.00 0.11 0.00 96 1010.7
20260507021038 52 77 0.0 0.0 0.00 0.11 0.00 96 1010.7
20260507020539 52 77 0.0 0.0 0.00 0.11 0.00 96 1010.7
20260507020038 52 77 0.0 0.0 0.00 0.11 0.00 95 1010.7
20260507015543 52 77 0.0 0.0 0.00 0.11 0.00 95 1010.6
20260507015045 52 77 0.0 0.0 0.00 0.11 0.00 95 1010.6
20260507014537 52 77 0.0 0.9 0.00 0.11 0.00 95 1010.6
20260507014039 52 77 0.0 1.7 0.00 0.11 0.00 95 1010.6
20260507013538 52 77 1.7 2.6 0.00 0.11 0.00 95 1010.6
20260507013038 52 77 1.7 4.3 0.00 0.11 0.00 94 1010.5
20260507012538 52 87 1.7 4.3 0.00 0.11 0.00 94 1010.5
20260507011538 52 277 0.0 0.0 0.00 0.11 0.00 94 1010.5
20260507011038 53 277 0.0 0.0 0.00 0.11 0.00 94 1010.5
20260507005538 53 277 0.9 1.7 0.00 0.11 0.00 93 1010.4
20260507005038 54 17 0.0 0.0 0.00 0.11 0.00 94 1010.5
20260507004538 54 17 0.9 1.7 0.00 0.11 0.00 94 1010.4
20260507004040 54 5 0.0 0.0 0.00 0.11 0.00 94 1010.4
20260507003038 54 143 0.0 0.0 0.00 0.11 0.00 93 1010.3
20260507002538 54 143 0.0 0.0 0.00 0.11 0.00 93 1010.3
20260507002038 54 54 0.0 0.0 0.00 0.11 0.00 93 1010.3
20260507001556 54 54 0.9 1.7 0.00 0.11 0.00 93 1010.3
20260507001038 54 54 0.0 2.6 0.00 0.11 0.00 92 1010.3
20260507000538 54 72 0.9 2.6 0.00 0.11 0.00 91 1010.4
20260507000039 54 72 0.9 2.6 0.00 0.11 0.00 91 1010.4
20260506235537 55 88 1.7 4.3 0.00 0.11 0.00 90 1010.3
20260506235039 55 184 0.0 2.6 0.00 0.11 0.00 90 1010.3
20260506234538 56 210 0.0 1.7 0.00 0.11 0.00 90 1010.3
20260506234040 56 210 0.9 2.6 0.00 0.11 0.00 90 1010.2
20260506233038 57 271 0.9 2.6 0.00 0.11 0.00 90 1010.3
20260506232537 57 268 1.7 2.6 0.00 0.11 0.00 93 1010.3
20260506232037 56 325 0.0 0.9 0.00 0.11 0.00 95 1010.3
20260506231537 56 23 2.6 7.0 0.00 0.11 0.00 96 1010.3
20260506231038 57 131 0.9 4.3 0.00 0.11 0.00 96 1010.3
20260506230538 57 89 1.7 4.3 0.00 0.11 0.00 96 1010.3
20260506230038 57 117 0.9 2.6 0.00 0.11 0.00 96 1010.3
20260506225537 57 55 0.0 2.6 0.00 0.11 0.00 96 1010.2
20260506225038 57 34 0.9 2.6 0.00 0.11 0.00 96 1010.2
20260506224037 57 59 1.7 2.6 0.00 0.11 0.00 96 1010.2
20260506223037 57 95 0.9 2.6 0.00 0.11 0.00 96 1010.3
20260506222540 57 95 0.0 2.6 0.00 0.11 0.00 96 1010.3
20260506222044 57 95 0.9 4.3 0.00 0.11 0.00 96 1010.2
20260506221038 57 67 2.6 4.3 0.00 0.11 0.00 95 1010.2
20260506220037 57 101 1.7 2.6 0.00 0.11 0.11 94 1010.3
20260506215537 58 101 0.0 2.6 0.00 0.11 0.11 94 1010.3
20260506215038 58 121 1.7 2.6 0.00 0.11 0.11 94 1010.3
20260506214540 58 217 0.0 1.7 0.00 0.11 0.11 94 1010.1
20260506214054 59 214 0.0 0.9 0.00 0.11 0.11 94 1010.1
20260506213537 59 287 0.9 2.6 0.00 0.11 0.11 93 1010.2
20260506213037 59 285 0.0 1.7 0.00 0.11 0.11 94 1010.2
20260506212540 59 289 0.0 1.7 0.00 0.11 0.11 95 1010.1
20260506212038 58 190 1.7 2.6 0.00 0.11 0.11 96 1010.2
20260506211536 59 355 0.9 2.6 0.00 0.11 0.11 96 1010.2
20260506211037 59 67 1.7 2.6 0.00 0.11 0.11 96 1010.3
20260506210537 59 67 1.7 2.6 0.00 0.11 0.11 96 1010.2
20260506210037 59 67 0.9 1.7 0.00 0.11 0.11 96 1010.2
20260506205548 59 67 0.9 1.7 0.00 0.11 0.11 96 1010.2
20260506205037 59 68 2.6 2.6 0.00 0.11 0.11 96 1010.2
20260506204537 59 204 0.9 1.7 0.00 0.11 0.11 95 1010.1
20260506204040 59 204 0.0 0.9 0.00 0.11 0.11 95 1010.1
20260506203540 60 204 0.0 1.7 0.00 0.11 0.11 95 1010.0
20260506203042 60 204 1.7 2.6 0.00 0.11 0.11 95 1010.0
20260506202537 60 323 0.9 1.7 0.00 0.11 0.11 95 1009.9
20260506202037 60 323 0.9 2.6 0.00 0.11 0.11 94 1009.9
20260506201537 60 276 1.7 2.6 0.00 0.11 0.11 94 1009.9
20260506200037 61 355 1.7 2.6 0.00 0.11 0.11 94 1009.7
20260506195536 61 5 0.9 1.7 0.00 0.11 0.11 93 1009.7
20260506195038 61 79 2.6 6.1 0.00 0.11 0.11 93 1009.4